AZU2340 SBJP-SBFN

Flight info

Callsign AZU2340
Flight time N/A
Altitude 23000
Route ESGUM W41 TOMEK
Aircraft E195/M-SDE3GILORVW/S

Departure

Time 2026-04-18 11:53
Airport Presidente Castro Pinto International Airport (SBJP)

Arrival

Time N/A
Airport Fernando de Noronha Airport (SBFN)
Time Latitude Longitude Altitude Speed Heading
2026-04-18 11:33 -7.14606 -34.95009 218 ft 0 kts 135°
2026-04-18 11:43 -7.14598 -34.95017 218 ft 2 kts 131°
2026-04-18 11:44 -7.14587 -34.95027 218 ft 2 kts 160°
2026-04-18 11:44 -7.14572 -34.95029 218 ft 2 kts 187°
2026-04-18 11:44 -7.14558 -34.95025 218 ft 2 kts 216°
2026-04-18 11:44 -7.14553 -34.95020 218 ft 1 kts 230°
2026-04-18 11:45 -7.14550 -34.95017 218 ft 0 kts 226°
2026-04-18 11:46 -7.14553 -34.95019 218 ft 1 kts 226°
2026-04-18 11:47 -7.14565 -34.95032 218 ft 3 kts 226°
2026-04-18 11:47 -7.14591 -34.95056 218 ft 6 kts 213°
2026-04-18 11:47 -7.14637 -34.95050 218 ft 8 kts 142°
2026-04-18 11:47 -7.14686 -34.95007 218 ft 9 kts 147°
2026-04-18 11:48 -7.14742 -34.95025 218 ft 8 kts 221°
2026-04-18 11:48 -7.14758 -34.95040 218 ft 0 kts 224°
2026-04-18 11:48 -7.14758 -34.95041 218 ft 0 kts 224°
2026-04-18 11:48 -7.14768 -34.95050 218 ft 3 kts 224°
2026-04-18 11:49 -7.14789 -34.95070 218 ft 5 kts 224°
2026-04-18 11:49 -7.14806 -34.95108 218 ft 7 kts 282°
2026-04-18 11:49 -7.14773 -34.95156 218 ft 9 kts 312°
2026-04-18 11:49 -7.14718 -34.95211 218 ft 12 kts 315°
2026-04-18 11:50 -7.14652 -34.95277 218 ft 14 kts 315°
2026-04-18 11:50 -7.14573 -34.95355 218 ft 17 kts 315°
2026-04-18 11:50 -7.14482 -34.95445 218 ft 19 kts 315°
2026-04-18 11:50 -7.14379 -34.95547 218 ft 21 kts 315°
2026-04-18 11:51 -7.14285 -34.95641 218 ft 19 kts 315°
2026-04-18 11:51 -7.14195 -34.95731 218 ft 16 kts 315°
2026-04-18 11:51 -7.14125 -34.95788 218 ft 10 kts 333°
2026-04-18 11:51 -7.14065 -34.95810 218 ft 8 kts 338°
2026-04-18 11:52 -7.14057 -34.95856 218 ft 7 kts 199°
2026-04-18 11:52 -7.14084 -34.95844 218 ft 0 kts 136°
2026-04-18 11:53 -7.14148 -34.95781 218 ft 47 kts 135°
2026-04-18 11:53 -7.14584 -34.95348 218 ft 124 kts 135°
2026-04-18 11:53 -7.15332 -34.94598 411 ft 166 kts 135°
2026-04-18 11:53 -7.16165 -34.93825 1131 ft 163 kts 139°
2026-04-18 11:54 -7.16988 -34.93075 1826 ft 162 kts 136°
2026-04-18 11:54 -7.17817 -34.92303 2373 ft 170 kts 135°
2026-04-18 11:54 -7.18719 -34.91410 2674 ft 193 kts 135°
2026-04-18 11:54 -7.19478 -34.90231 3071 ft 214 kts 101°
2026-04-18 11:55 -7.19224 -34.88715 3551 ft 240 kts 63°
2026-04-18 11:55 -7.18248 -34.87253 4000 ft 264 kts 58°
2026-04-18 11:55 -7.17177 -34.85688 4780 ft 272 kts 58°
2026-04-18 11:55 -7.16131 -34.84135 5696 ft 273 kts 58°
2026-04-18 11:56 -7.15070 -34.82550 6639 ft 273 kts 58°
2026-04-18 11:56 -7.14020 -34.80975 7485 ft 275 kts 58°
2026-04-18 11:56 -7.12966 -34.79390 8273 ft 278 kts 58°
2026-04-18 11:56 -7.11877 -34.77753 9006 ft 282 kts 57°
2026-04-18 11:57 -7.10778 -34.76100 9728 ft 286 kts 57°
2026-04-18 11:57 -7.09675 -34.74441 10433 ft 290 kts 57°
2026-04-18 11:57 -7.08548 -34.72746 11013 ft 298 kts 57°
2026-04-18 11:57 -7.07365 -34.70967 11538 ft 309 kts 57°
2026-04-18 11:58 -7.06155 -34.69146 12018 ft 320 kts 57°
2026-04-18 11:58 -7.04892 -34.67248 12548 ft 329 kts 57°
2026-04-18 11:58 -7.03612 -34.65323 13190 ft 333 kts 57°
2026-04-18 11:58 -7.02322 -34.63384 13875 ft 335 kts 57°
2026-04-18 11:59 -7.01019 -34.61426 14545 ft 338 kts 57°
2026-04-18 11:59 -6.99720 -34.59473 15185 ft 340 kts 57°
2026-04-18 11:59 -6.98406 -34.57498 15809 ft 343 kts 57°
2026-04-18 11:59 -6.97052 -34.55463 16402 ft 347 kts 56°
2026-04-18 12:00 -6.95687 -34.53412 16996 ft 351 kts 57°
2026-04-18 12:00 -6.94308 -34.51341 17583 ft 354 kts 57°
2026-04-18 12:00 -6.92939 -34.49283 18170 ft 356 kts 56°
2026-04-18 12:00 -6.91540 -34.47182 18724 ft 360 kts 56°
2026-04-18 12:01 -6.88727 -34.42957 19797 ft 365 kts 56°
2026-04-18 12:01 -6.87305 -34.40823 20309 ft 369 kts 55°
2026-04-18 12:01 -6.85881 -34.38685 20799 ft 372 kts 55°
2026-04-18 12:02 -6.84426 -34.36500 21293 ft 375 kts 55°
2026-04-18 12:02 -6.82958 -34.34298 21790 ft 377 kts 54°
2026-04-18 12:02 -6.81513 -34.32129 22255 ft 380 kts 54°
2026-04-18 12:02 -6.80026 -34.29899 22738 ft 378 kts 54°
2026-04-18 12:03 -6.78562 -34.27703 22856 ft 385 kts 54°
2026-04-18 12:03 -6.77049 -34.25434 22883 ft 400 kts 54°
2026-04-18 12:03 -6.75466 -34.23060 22882 ft 410 kts 54°
2026-04-18 12:03 -6.73876 -34.20675 22873 ft 411 kts 54°
2026-04-18 12:04 -6.72296 -34.18304 22870 ft 410 kts 54°
2026-04-18 12:04 -6.70700 -34.15912 22870 ft 410 kts 54°
2026-04-18 12:04 -6.69114 -34.13534 22869 ft 410 kts 54°
2026-04-18 12:04 -6.67497 -34.11111 22867 ft 410 kts 54°
2026-04-18 12:05 -6.65896 -34.08712 22866 ft 411 kts 54°
2026-04-18 12:05 -6.64292 -34.06308 22866 ft 411 kts 54°
2026-04-18 12:05 -6.62535 -34.04016 22850 ft 407 kts 41°
2026-04-18 12:05 -6.60245 -34.02407 22891 ft 405 kts 30°
2026-04-18 12:06 -6.57804 -34.00950 22868 ft 405 kts 30°
2026-04-18 12:06 -6.55354 -33.99504 22865 ft 405 kts 30°
2026-04-18 12:06 -6.52929 -33.98078 22868 ft 406 kts 30°
2026-04-18 12:06 -6.50472 -33.96637 22874 ft 407 kts 30°
2026-04-18 12:07 -6.48039 -33.95210 22877 ft 408 kts 30°
2026-04-18 12:07 -6.45574 -33.93764 22882 ft 408 kts 30°
2026-04-18 12:07 -6.43146 -33.92340 22883 ft 407 kts 30°
2026-04-18 12:07 -6.40665 -33.90886 22884 ft 407 kts 30°
2026-04-18 12:08 -6.38211 -33.89447 22883 ft 408 kts 30°
2026-04-18 12:08 -6.35773 -33.88017 22882 ft 406 kts 30°
2026-04-18 12:08 -6.33325 -33.86583 22881 ft 405 kts 30°
2026-04-18 12:08 -6.30908 -33.85166 22882 ft 405 kts 30°
2026-04-18 12:09 -6.28470 -33.83738 22883 ft 407 kts 30°
2026-04-18 12:09 -6.26010 -33.82297 22882 ft 407 kts 30°
2026-04-18 12:09 -6.23557 -33.80859 22881 ft 405 kts 30°
2026-04-18 12:09 -6.21114 -33.79428 22880 ft 405 kts 30°
2026-04-18 12:10 -6.18678 -33.78001 22881 ft 405 kts 30°
2026-04-18 12:10 -6.16231 -33.76568 22880 ft 404 kts 30°
2026-04-18 12:10 -6.13784 -33.75135 22875 ft 405 kts 30°
2026-04-18 12:10 -6.11357 -33.73714 22872 ft 406 kts 30°
2026-04-18 12:11 -6.08915 -33.72284 22867 ft 404 kts 30°
2026-04-18 12:11 -6.06451 -33.70842 22863 ft 405 kts 30°
2026-04-18 12:11 -6.04017 -33.69417 22862 ft 403 kts 30°
2026-04-18 12:11 -6.01574 -33.67987 22861 ft 405 kts 30°
2026-04-18 12:12 -5.99138 -33.66562 22860 ft 405 kts 30°
2026-04-18 12:12 -5.96704 -33.65138 22858 ft 405 kts 30°
2026-04-18 12:12 -5.94263 -33.63709 22861 ft 403 kts 30°
2026-04-18 12:12 -5.91810 -33.62274 22859 ft 404 kts 30°
2026-04-18 12:13 -5.89370 -33.60847 22858 ft 405 kts 30°
2026-04-18 12:13 -5.86922 -33.59415 22862 ft 404 kts 30°
2026-04-18 12:13 -5.84470 -33.57981 22863 ft 405 kts 30°
2026-04-18 12:13 -5.82040 -33.56560 22863 ft 404 kts 30°
2026-04-18 12:14 -5.79579 -33.55121 22863 ft 405 kts 30°
2026-04-18 12:14 -5.77168 -33.53711 22863 ft 403 kts 30°
2026-04-18 12:14 -5.74734 -33.52288 22860 ft 404 kts 30°
2026-04-18 12:14 -5.72278 -33.50852 22860 ft 405 kts 30°
2026-04-18 12:15 -5.69854 -33.49435 22861 ft 404 kts 30°
2026-04-18 12:15 -5.67411 -33.48008 22862 ft 405 kts 30°
2026-04-18 12:15 -5.64961 -33.46576 22863 ft 405 kts 30°
2026-04-18 12:15 -5.62536 -33.45159 22863 ft 405 kts 30°
2026-04-18 12:16 -5.60089 -33.43729 22864 ft 404 kts 30°
2026-04-18 12:16 -5.57655 -33.42307 22864 ft 406 kts 30°
2026-04-18 12:16 -5.55208 -33.40877 22861 ft 405 kts 30°
2026-04-18 12:16 -5.52759 -33.39447 22863 ft 404 kts 30°
2026-04-18 12:17 -5.50321 -33.38023 22863 ft 404 kts 30°
2026-04-18 12:17 -5.47876 -33.36595 22860 ft 404 kts 30°
2026-04-18 12:17 -5.45449 -33.35178 22861 ft 406 kts 30°
2026-04-18 12:17 -5.42980 -33.33736 22864 ft 406 kts 30°
2026-04-18 12:18 -5.40561 -33.32324 22863 ft 406 kts 30°
2026-04-18 12:18 -5.38103 -33.30889 22861 ft 406 kts 30°
2026-04-18 12:18 -5.35674 -33.29472 22863 ft 404 kts 30°
2026-04-18 12:18 -5.33209 -33.28034 22863 ft 406 kts 30°
2026-04-18 12:19 -5.30786 -33.26621 22863 ft 407 kts 30°
2026-04-18 12:19 -5.28336 -33.25191 22861 ft 406 kts 30°
2026-04-18 12:19 -5.25864 -33.23750 22862 ft 407 kts 30°
2026-04-18 12:19 -5.23444 -33.22338 22864 ft 407 kts 30°
2026-04-18 12:20 -5.20987 -33.20905 22862 ft 407 kts 30°
2026-04-18 12:20 -5.18536 -33.19476 22862 ft 407 kts 30°
2026-04-18 12:20 -5.16080 -33.18044 22861 ft 406 kts 30°
2026-04-18 12:20 -5.13637 -33.16620 22862 ft 406 kts 30°
2026-04-18 12:21 -5.11184 -33.15190 22862 ft 407 kts 30°
2026-04-18 12:21 -5.08738 -33.13764 22860 ft 406 kts 31°
2026-04-18 12:21 -5.06291 -33.12338 22863 ft 407 kts 30°
2026-04-18 12:21 -5.03828 -33.10902 22864 ft 406 kts 30°
2026-04-18 12:22 -5.01416 -33.09497 22851 ft 396 kts 30°
2026-04-18 12:22 -4.99046 -33.08116 22858 ft 392 kts 30°
2026-04-18 12:22 -4.96702 -33.06750 22862 ft 392 kts 30°
2026-04-18 12:22 -4.94303 -33.05352 22778 ft 395 kts 30°
2026-04-18 12:23 -4.91931 -33.03971 22366 ft 393 kts 30°
2026-04-18 12:23 -4.89582 -33.02602 21950 ft 390 kts 30°
2026-04-18 12:23 -4.87241 -33.01239 21518 ft 386 kts 31°
2026-04-18 12:23 -4.84904 -32.99878 21083 ft 382 kts 31°
2026-04-18 12:24 -4.82637 -32.98558 20659 ft 378 kts 31°
2026-04-18 12:24 -4.80373 -32.97239 20238 ft 376 kts 31°
2026-04-18 12:24 -4.78110 -32.95922 19822 ft 373 kts 31°
2026-04-18 12:24 -4.75874 -32.94620 19409 ft 371 kts 31°
2026-04-18 12:25 -4.73620 -32.93308 18994 ft 369 kts 31°
2026-04-18 12:25 -4.71413 -32.92023 18587 ft 366 kts 31°
2026-04-18 12:25 -4.69236 -32.90756 18187 ft 363 kts 31°
2026-04-18 12:25 -4.67056 -32.89487 17784 ft 361 kts 31°